SCP
-0 -0 -0 0 0 -0 -0 -0 -0 -0 -0 -0 0 -0 -0 -0 -0 0 0 -0 -0 -0 -0 0 0 0 0 -0 -0 -0 -0 -0 0 -0 -0 -0 -0 -0 -0 -0 -0 -0 -0
-0 -0 -0 -0 -0 -0 -0 -0 -0 -0 -0 0 0 0 0 -0 0 -0 0 0 -0 -0 -0 0 0 0 0 0 0 -0 -0 -0 -0 -0 0 -0 -0 -0 -0 -0 -0 -0 -0
-0 -0 -0 -0 -0 -0 -0 -0 -0 -0 -0 -0 -0 -0 0 0 0 -0 0 0 -0 -0 0 0 0 0 0 0 0 -0 -0 -0 0 -0 0 0 0 -0 -0 -0 -0 -0 -0
-0 -0 -0 -0 -0 -0 -0 -0 -0 -0 -0 -0 -0 -0 0 -0 -0 0 0 0 -0 -0 -0 0 0 0 0 0 0 -0 0 -0 -0 0 -0 0 0 0 -0 0 -0 -0 -0
-0 -0 -0 -0 -0 -0 -0 -0 -0 -0 -0 -0 -0 -0 -0 0 -0 -0 0 0 -0 -0 -0 0 0 0 0 0 -0 -0 -0 -0 -0 -0 -0 0 -0 0 0 -0 -0 -0 -0
-0 -0 -0 -0 -0 0 0 -0 -0 -0 -0 -0 -0 -0 -0 0 0 0 0 0 0 -0 -0 0 0 0 0 0 -0 -0 -0 -0 -0 -0 -0 -0 -0 -0 -0 -0 -0 -0 -0
-0 -0 -0 -0 -0 -0 -0 -0 -0 -0 -0 -0 -0 -0 -0 -0 0 0 0 0 0 0 -0 -0 0 0 0 0 -0 0 -0 0 -0 -0 -0 -0 0 -0 0 0 0 0 0
-0 -0 -0 -0 -0 -0 -0 -0 -0 -0 -0 -0 -0 -0 -0 -0 -0 -0 0 0 0 0 0 -0 0 0 0 0 -0 0 0 0 -0 0 0 0 0 0 0 -0 0 0 0
-0 -0 -0 -0 -0 -0 -0 -0 -0 -0 -0 0 0 0 -0 -0 -0 -0 -0 -0 0 0 0 -0 0 0 0 0 -0 -0 -0 0 0 0 0 0 0 0 0 -0 0 0 0
-0 -0 -0 -0 -0 -0 -0 -0 -0 0 0 0 0 0 0 0 -0 0 -0 -0 0 -0 0 -0 -0 0 0 -0 -0 -0 -0 0 0 0 0 0 0 0 0 0 0 -0 0
-0 -0 -0 0 0 0 0 0 0 0 0 0 0 0 0 0 0 0 0 0 0 -0 -0 -0 -0 -0 -0 -0 -0 -0 -0 -0 -0 0 0 0 0 0 0 0 -0 0 0
0 -0 0 0 0 0 0 0 -0 -0 -0 0 1 0 0 0 -0 -0 0 -0 -0 -0 -0 -0 -0 -0 -0 -0 -0 0 0 0 0 0 0 0 0 0 0 0 0 0 0
0 0 0 0 0 0 0 0 -0 -0 -0 0 -0 -0 0 0 -0 -0 0 0 -0 -0 -0 -0 -0 -0 -0 -0 0 0 0 0 0 0 0 0 0 0 0 0 0 0 0
-0 0 -0 -0 -0 0 0 0 0 0 0 -0 0 0 -0 -0 0 0 0 -0 0 -0 0 0 0 0 0 0 0 0 0 0 0 0 0 0 0 0 0 0 0 0 0
-0 -0 -0 -0 -0 -0 0 0 0 0 0 -0 -0 -0 -0 0 0 0 -0 -0 -0 -0 0 0 0 0 0 1 1 1 1 1 1 0 0 0 0 0 0 0 0 0 0
-1 -0 -0 -0 -0 -0 0 0 0 0 0 0 -0 -0 -0 -0 -0 -0 -0 -0 0 0 0 0 0 0 1 1 1 1 2 1 1 0 0 0 0 0 0 0 0 0 0
-1 -0 -0 -0 -0 -0 0 0 -0 0 0 0 0 0 0 -0 -0 -0 -0 -0 -0 0 -0 0 0 0 1 1 1 1 3 2 1 0 0 0 0 0 0 0 0 0 0
-1 -0 -0 -0 -0 0 0 0 -0 -0 0 0 1 1 1 1 1 1 1 1 1 0 0 1 1 1 1 1 0 1 0 0 0 -0 -0 -0 0 0 0 0 0 0 0
-0 -0 -0 -0 0 0 -0 -0 -0 0 0 -0 0 0 0 0 1 1 1 1 1 1 1 1 1 1 0 1 0 0 0 0 0 0 0 0 0 0 -0 -0 0 0 0
-0 -0 -0 -0 -0 0 0 0 0 0 0 0 0 0 -0 -0 -0 0 0 0 0 0 1 1 1 1 1 0 0 0 1 0 0 0 0 -0 -0 0 -0 -0 -0 0 0
-0 -0 -0 -0 0 0 0 0 0 0 0 0 0 0 0 -0 -0 -0 -0 -0 0 0 1 1 1 2 2 1 0 0 0 1 1 1 0 0 0 0 0 -0 0 0 0
-0 0 0 0 0 0 0 0 0 0 1 1 1 1 1 0 0 0 0 -0 -0 0 0 1 1 1 2 1 0 0 0 0 1 0 0 0 0 0 0 0 0 0 0
0 0 0 0 0 0 0 0 1 1 2 2 1 1 1 1 1 1 1 1 0 0 0 0 0 0 1 1 0 0 0 0 0 1 1 0 0 0 0 0 0 0 0
0 0 0 1 1 1 1 1 2 2 2 2 1 1 1 1 1 1 0 0 0 0 0 0 0 0 0 1 1 0 0 0 0 0 0 0 0 0 0 0 0 0 0
1 1 1 1 1 1 2 2 1 1 1 2 1 1 1 1 1 1 1 0 1 0 0 0 0 0 0 1 1 1 1 0 0 0 0 0 0 0 0 0 0 0 0
1 1 1 2 1 1 1 1 2 2 2 1 1 1 1 1 1 1 1 0 0 0 0 0 0 1 1 0 0 0 0 0 0 0 0 0 0 0 0 0 0 0 0
Wind_Speed_500mb
46 41 40 37 35 34 34 36 35 34 30 27 22 18 13 11 8 6 6 3 2 5 6 3 6 5 2 6 4 3 8 11 23 29 32 33 29 27 24 21 14 12 12
46 46 43 40 41 40 40 39 40 40 36 27 22 18 16 14 11 9 10 7 7 7 4 7 6 10 8 6 6 12 11 10 11 13 21 19 25 22 20 18 18 16 16
49 50 48 44 41 42 44 45 45 42 41 34 27 23 18 21 13 13 10 12 10 10 8 10 9 10 7 6 5 14 17 9 10 14 3 11 11 21 15 15 15 18 17
48 49 49 47 44 43 40 41 45 46 41 40 31 28 19 17 15 15 12 14 18 14 11 9 8 6 8 10 6 15 16 17 11 12 6 3 16 8 12 15 15 15 16
52 50 48 48 45 39 40 39 41 46 45 42 40 32 26 19 15 15 18 14 15 16 15 11 9 5 7 11 11 11 17 14 15 14 14 9 9 7 8 21 17 14 13
56 51 45 40 41 39 36 35 37 43 45 41 40 40 30 24 18 18 19 16 14 15 18 14 13 12 10 10 11 11 13 18 19 17 19 18 16 14 12 14 22 18 18
54 51 48 45 41 40 38 36 38 39 40 41 37 38 35 30 27 23 20 20 17 15 19 17 16 13 12 12 14 13 16 18 17 23 18 19 20 16 18 15 17 20 19
51 51 54 52 48 43 41 40 38 38 38 41 38 36 36 33 29 26 22 22 18 17 19 15 17 17 16 13 13 11 10 15 15 20 25 18 19 20 19 20 19 18 17
52 54 53 52 48 45 42 42 42 41 35 35 40 40 40 38 31 31 28 25 26 21 24 18 17 17 16 16 15 11 14 16 14 15 17 19 17 18 20 21 23 23 21
43 43 43 45 46 45 42 37 37 35 36 26 28 33 36 40 40 41 37 33 29 29 28 25 21 21 18 17 17 15 15 15 16 12 14 17 14 16 16 19 23 27 25
33 41 40 37 37 39 42 37 33 38 37 16 36 37 34 36 38 39 41 41 38 37 35 33 30 26 25 22 21 21 21 17 20 18 15 17 23 17 17 19 22 25 26
19 31 36 34 34 36 38 39 43 40 37 36 33 59 42 37 44 35 35 40 43 42 40 39 38 35 32 30 27 26 22 20 19 19 19 18 19 26 29 21 23 25 28
20 31 36 33 34 36 40 39 40 35 33 21 32 56 45 40 44 43 37 37 41 42 44 45 46 44 42 38 34 31 30 27 24 22 21 24 26 28 24 25 20 21 24
28 36 38 37 33 33 34 34 36 37 35 40 38 41 46 50 44 42 40 41 43 46 48 50 50 53 52 50 45 40 38 35 33 21 24 34 34 34 33 33 31 25 26
37 40 41 39 37 36 32 28 26 27 35 50 46 43 38 35 37 39 39 40 43 43 46 50 54 54 55 52 52 51 48 43 32 24 36 41 45 38 37 31 32 31 31
36 39 39 37 37 39 39 31 23 16 19 31 47 52 45 49 45 38 37 43 49 51 51 52 54 57 54 52 58 55 51 46 43 35 44 47 47 38 39 37 39 35 36
43 43 45 43 42 44 46 42 33 23 15 9 3 3 6 9 12 14 19 27 34 36 42 45 49 53 54 58 60 58 59 36 20 33 47 43 47 42 42 40 37 38 37
47 45 48 47 42 43 44 41 33 30 28 24 18 14 10 8 10 12 13 14 20 25 29 37 43 47 51 55 53 51 46 37 28 48 50 41 41 50 48 44 40 41 41
43 44 43 41 44 43 50 43 40 36 28 22 13 8 4 3 6 10 14 17 19 21 23 25 32 39 44 52 52 57 56 62 56 44 62 55 55 57 48 45 43 42 42
41 43 41 42 40 41 44 38 35 28 24 21 16 14 13 12 12 13 17 20 20 24 26 25 27 29 32 37 38 39 40 48 53 45 63 62 74 72 55 52 49 46 47
43 41 39 37 33 31 30 29 28 24 21 14 8 5 6 10 14 18 22 26 28 29 32 29 30 33 35 36 34 33 33 34 40 50 66 73 63 68 62 58 55 49 44
43 41 39 34 27 25 23 23 23 23 24 20 13 6 5 10 15 21 27 31 33 30 29 29 30 31 40 39 37 35 32 29 43 47 47 47 68 65 71 67 61 57 53
39 41 38 35 30 26 22 22 21 22 21 19 11 10 11 15 21 27 33 31 32 36 34 32 32 30 31 38 38 39 33 32 43 49 49 51 45 55 67 74 68 60 57
32 35 36 32 27 24 22 22 27 23 22 18 16 20 24 27 31 27 30 35 41 42 39 36 34 33 30 32 34 38 37 34 39 44 46 52 51 45 52 80 77 70 66
25 27 28 24 18 18 20 21 20 17 14 13 14 18 23 27 32 33 36 39 38 34 36 35 35 36 36 31 35 35 35 36 37 39 45 52 58 58 58 75 84 75 73
16 16 15 14 10 11 11 12 13 13 13 13 18 25 30 34 36 38 40 38 39 39 34 37 43 43 47 45 41 43 41 37 35 42 54 58 61 63 67 72 86 81 78
Wind_Direction_500mb
197 197 200 200 200 201 202 203 201 203 202 207 208 213 217 221 228 240 258 284 303 284 249 221 249 196 184 202 295 28 130 112 110 100 96 89 85 93 98 91 89 111 160
196 196 199 201 206 208 209 208 210 213 211 211 214 213 215 219 225 242 260 273 282 321 253 246 249 217 241 269 294 158 153 145 144 115 113 102 96 102 103 98 91 100 98
196 195 198 203 206 209 212 214 216 218 218 210 218 225 223 227 241 248 259 252 289 289 270 260 233 251 212 262 279 177 175 179 186 174 206 159 127 128 113 104 109 109 117
203 202 202 204 206 213 215 217 219 221 224 223 217 222 219 230 236 241 255 247 271 263 259 244 235 217 198 225 240 197 191 175 199 204 190 147 152 169 147 138 133 124 123
205 204 204 203 205 208 214 217 218 223 221 223 221 227 224 234 235 235 246 259 262 244 251 255 262 261 206 227 222 211 204 217 201 221 223 212 199 226 172 160 164 154 153
205 206 206 202 206 209 212 214 219 224 222 226 223 230 224 229 232 239 243 251 251 253 247 255 252 253 240 231 218 221 233 220 226 222 226 225 216 221 204 179 177 182 181
203 204 205 204 204 207 209 209 214 217 217 221 226 229 233 242 248 246 249 238 248 254 253 251 252 252 262 258 236 233 245 249 244 240 234 231 231 238 223 215 189 192 189
198 201 205 205 203 203 204 205 209 210 215 220 224 231 233 237 242 247 233 236 237 253 249 256 247 259 261 261 261 246 245 260 254 257 236 234 238 232 224 225 195 196 200
196 196 199 202 201 202 203 205 203 206 209 219 226 230 235 232 229 230 241 243 243 246 258 259 255 265 266 259 257 240 251 258 265 273 251 231 240 232 229 227 224 219 207
197 198 198 199 197 200 199 197 200 200 205 209 230 230 235 240 238 243 246 240 241 251 250 260 261 262 269 260 255 242 248 252 259 274 263 233 237 238 235 231 231 231 239
194 197 195 195 190 188 188 187 174 188 193 186 276 236 228 245 246 245 247 249 249 252 255 260 261 262 261 264 254 241 241 256 253 256 265 247 243 236 245 244 237 235 231
184 187 179 172 178 177 176 174 179 202 213 243 269 236 239 242 247 246 253 254 252 253 254 256 256 257 258 257 261 255 239 254 257 258 263 261 254 251 248 244 236 230 226
140 160 155 157 163 169 172 182 196 207 212 218 214 200 216 230 239 237 241 250 255 255 256 254 255 255 256 256 256 254 250 254 256 257 263 263 256 251 237 248 237 231 222
132 140 148 146 157 166 173 183 192 202 209 209 215 212 220 241 245 233 240 252 259 256 257 258 257 256 253 253 250 249 246 246 246 270 305 279 259 254 246 246 242 221 216
131 137 143 146 150 153 161 171 183 195 204 211 228 233 238 240 253 256 266 262 260 256 257 261 260 257 254 246 244 239 243 243 242 248 290 293 250 248 246 232 239 226 221
135 134 141 145 147 145 139 138 144 159 190 213 228 242 253 269 272 276 273 267 263 255 259 258 256 254 251 246 249 239 235 240 229 273 293 273 249 242 245 237 229 237 231
127 126 130 132 133 130 124 118 116 114 118 125 150 237 277 298 305 302 290 280 275 266 260 258 255 253 253 253 254 247 240 224 275 290 294 269 234 243 243 242 235 233 224
129 129 129 131 131 132 119 103 101 102 103 103 98 84 65 37 8 352 335 313 291 285 275 266 263 261 258 259 260 251 239 272 300 259 255 238 226 240 235 236 233 228 218
138 137 135 141 142 133 113 105 103 104 111 109 108 99 75 13 330 322 310 302 297 293 293 288 276 266 267 266 264 266 260 253 264 252 236 234 226 236 235 237 237 226 215
147 144 148 148 143 134 124 121 123 118 109 106 99 80 58 38 17 343 321 306 298 298 291 282 285 287 283 280 280 278 269 253 252 242 230 231 234 232 228 230 228 219 213
153 153 157 161 160 149 142 150 156 160 143 137 130 91 52 28 14 5 356 342 321 297 290 290 292 288 283 283 284 283 276 260 247 241 231 229 230 229 223 228 227 218 212
162 166 170 178 180 175 175 178 181 180 176 179 184 204 287 321 327 333 332 329 325 312 296 292 288 282 280 278 274 275 271 265 246 249 253 256 231 232 229 220 222 221 209
176 178 179 184 193 200 199 205 210 201 195 209 235 272 291 305 311 313 317 316 312 305 298 291 290 288 284 277 275 270 261 254 249 248 249 252 257 240 234 222 220 225 210
187 192 189 193 200 201 212 209 231 220 223 229 261 291 305 306 313 306 304 303 305 300 291 287 287 287 284 280 278 268 265 251 242 242 244 247 253 255 235 225 216 221 217
173 183 188 191 196 209 224 230 232 227 234 255 276 290 297 299 306 308 300 301 300 289 280 279 282 283 281 280 267 273 267 262 261 255 245 246 246 240 231 222 220 219 214
153 157 165 171 181 203 200 206 216 230 256 288 293 293 302 305 304 304 306 305 306 308 300 282 282 283 281 279 273 273 269 262 258 254 249 245 245 239 234 228 220 217 215
Wind_Speed_850mb
46 41 40 37 35 34 34 36 35 34 30 27 22 18 13 11 8 6 6 3 2 5 6 3 6 5 2 6 4 3 8 11 23 29 32 33 29 27 24 21 14 12 12
46 46 43 40 41 40 40 39 40 40 36 27 22 18 16 14 11 9 10 7 7 7 4 7 6 10 8 6 6 12 11 10 11 13 21 19 25 22 20 18 18 16 16
49 50 48 44 41 42 44 45 45 42 41 34 27 23 18 21 13 13 10 12 10 10 8 10 9 10 7 6 5 14 17 9 10 14 3 11 11 21 15 15 15 18 17
48 49 49 47 44 43 40 41 45 46 41 40 31 28 19 17 15 15 12 14 18 14 11 9 8 6 8 10 6 15 16 17 11 12 6 3 16 8 12 15 15 15 16
52 50 48 48 45 39 40 39 41 46 45 42 40 32 26 19 15 15 18 14 15 16 15 11 9 5 7 11 11 11 17 14 15 14 14 9 9 7 8 21 17 14 13
56 51 45 40 41 39 36 35 37 43 45 41 40 40 30 24 18 18 19 16 14 15 18 14 13 12 10 10 11 11 13 18 19 17 19 18 16 14 12 14 22 18 18
54 51 48 45 41 40 38 36 38 39 40 41 37 38 35 30 27 23 20 20 17 15 19 17 16 13 12 12 14 13 16 18 17 23 18 19 20 16 18 15 17 20 19
51 51 54 52 48 43 41 40 38 38 38 41 38 36 36 33 29 26 22 22 18 17 19 15 17 17 16 13 13 11 10 15 15 20 25 18 19 20 19 20 19 18 17
52 54 53 52 48 45 42 42 42 41 35 35 40 40 40 38 31 31 28 25 26 21 24 18 17 17 16 16 15 11 14 16 14 15 17 19 17 18 20 21 23 23 21
43 43 43 45 46 45 42 37 37 35 36 26 28 33 36 40 40 41 37 33 29 29 28 25 21 21 18 17 17 15 15 15 16 12 14 17 14 16 16 19 23 27 25
33 41 40 37 37 39 42 37 33 38 37 16 36 37 34 36 38 39 41 41 38 37 35 33 30 26 25 22 21 21 21 17 20 18 15 17 23 17 17 19 22 25 26
19 31 36 34 34 36 38 39 43 40 37 36 33 59 42 37 44 35 35 40 43 42 40 39 38 35 32 30 27 26 22 20 19 19 19 18 19 26 29 21 23 25 28
20 31 36 33 34 36 40 39 40 35 33 21 32 56 45 40 44 43 37 37 41 42 44 45 46 44 42 38 34 31 30 27 24 22 21 24 26 28 24 25 20 21 24
28 36 38 37 33 33 34 34 36 37 35 40 38 41 46 50 44 42 40 41 43 46 48 50 50 53 52 50 45 40 38 35 33 21 24 34 34 34 33 33 31 25 26
37 40 41 39 37 36 32 28 26 27 35 50 46 43 38 35 37 39 39 40 43 43 46 50 54 54 55 52 52 51 48 43 32 24 36 41 45 38 37 31 32 31 31
36 39 39 37 37 39 39 31 23 16 19 31 47 52 45 49 45 38 37 43 49 51 51 52 54 57 54 52 58 55 51 46 43 35 44 47 47 38 39 37 39 35 36
43 43 45 43 42 44 46 42 33 23 15 9 3 3 6 9 12 14 19 27 34 36 42 45 49 53 54 58 60 58 59 36 20 33 47 43 47 42 42 40 37 38 37
47 45 48 47 42 43 44 41 33 30 28 24 18 14 10 8 10 12 13 14 20 25 29 37 43 47 51 55 53 51 46 37 28 48 50 41 41 50 48 44 40 41 41
43 44 43 41 44 43 50 43 40 36 28 22 13 8 4 3 6 10 14 17 19 21 23 25 32 39 44 52 52 57 56 62 56 44 62 55 55 57 48 45 43 42 42
41 43 41 42 40 41 44 38 35 28 24 21 16 14 13 12 12 13 17 20 20 24 26 25 27 29 32 37 38 39 40 48 53 45 63 62 74 72 55 52 49 46 47
43 41 39 37 33 31 30 29 28 24 21 14 8 5 6 10 14 18 22 26 28 29 32 29 30 33 35 36 34 33 33 34 40 50 66 73 63 68 62 58 55 49 44
43 41 39 34 27 25 23 23 23 23 24 20 13 6 5 10 15 21 27 31 33 30 29 29 30 31 40 39 37 35 32 29 43 47 47 47 68 65 71 67 61 57 53
39 41 38 35 30 26 22 22 21 22 21 19 11 10 11 15 21 27 33 31 32 36 34 32 32 30 31 38 38 39 33 32 43 49 49 51 45 55 67 74 68 60 57
32 35 36 32 27 24 22 22 27 23 22 18 16 20 24 27 31 27 30 35 41 42 39 36 34 33 30 32 34 38 37 34 39 44 46 52 51 45 52 80 77 70 66
25 27 28 24 18 18 20 21 20 17 14 13 14 18 23 27 32 33 36 39 38 34 36 35 35 36 36 31 35 35 35 36 37 39 45 52 58 58 58 75 84 75 73
16 16 15 14 10 11 11 12 13 13 13 13 18 25 30 34 36 38 40 38 39 39 34 37 43 43 47 45 41 43 41 37 35 42 54 58 61 63 67 72 86 81 78
Wind_Direction_850mb
197 197 200 200 200 201 202 203 201 203 202 207 208 213 217 221 228 240 258 284 303 284 249 221 249 196 184 202 295 28 130 112 110 100 96 89 85 93 98 91 89 111 160
196 196 199 201 206 208 209 208 210 213 211 211 214 213 215 219 225 242 260 273 282 321 253 246 249 217 241 269 294 158 153 145 144 115 113 102 96 102 103 98 91 100 98
196 195 198 203 206 209 212 214 216 218 218 210 218 225 223 227 241 248 259 252 289 289 270 260 233 251 212 262 279 177 175 179 186 174 206 159 127 128 113 104 109 109 117
203 202 202 204 206 213 215 217 219 221 224 223 217 222 219 230 236 241 255 247 271 263 259 244 235 217 198 225 240 197 191 175 199 204 190 147 152 169 147 138 133 124 123
205 204 204 203 205 208 214 217 218 223 221 223 221 227 224 234 235 235 246 259 262 244 251 255 262 261 206 227 222 211 204 217 201 221 223 212 199 226 172 160 164 154 153
205 206 206 202 206 209 212 214 219 224 222 226 223 230 224 229 232 239 243 251 251 253 247 255 252 253 240 231 218 221 233 220 226 222 226 225 216 221 204 179 177 182 181
203 204 205 204 204 207 209 209 214 217 217 221 226 229 233 242 248 246 249 238 248 254 253 251 252 252 262 258 236 233 245 249 244 240 234 231 231 238 223 215 189 192 189
198 201 205 205 203 203 204 205 209 210 215 220 224 231 233 237 242 247 233 236 237 253 249 256 247 259 261 261 261 246 245 260 254 257 236 234 238 232 224 225 195 196 200
196 196 199 202 201 202 203 205 203 206 209 219 226 230 235 232 229 230 241 243 243 246 258 259 255 265 266 259 257 240 251 258 265 273 251 231 240 232 229 227 224 219 207
197 198 198 199 197 200 199 197 200 200 205 209 230 230 235 240 238 243 246 240 241 251 250 260 261 262 269 260 255 242 248 252 259 274 263 233 237 238 235 231 231 231 239
194 197 195 195 190 188 188 187 174 188 193 186 276 236 228 245 246 245 247 249 249 252 255 260 261 262 261 264 254 241 241 256 253 256 265 247 243 236 245 244 237 235 231
184 187 179 172 178 177 176 174 179 202 213 243 269 236 239 242 247 246 253 254 252 253 254 256 256 257 258 257 261 255 239 254 257 258 263 261 254 251 248 244 236 230 226
140 160 155 157 163 169 172 182 196 207 212 218 214 200 216 230 239 237 241 250 255 255 256 254 255 255 256 256 256 254 250 254 256 257 263 263 256 251 237 248 237 231 222
132 140 148 146 157 166 173 183 192 202 209 209 215 212 220 241 245 233 240 252 259 256 257 258 257 256 253 253 250 249 246 246 246 270 305 279 259 254 246 246 242 221 216
131 137 143 146 150 153 161 171 183 195 204 211 228 233 238 240 253 256 266 262 260 256 257 261 260 257 254 246 244 239 243 243 242 248 290 293 250 248 246 232 239 226 221
135 134 141 145 147 145 139 138 144 159 190 213 228 242 253 269 272 276 273 267 263 255 259 258 256 254 251 246 249 239 235 240 229 273 293 273 249 242 245 237 229 237 231
127 126 130 132 133 130 124 118 116 114 118 125 150 237 277 298 305 302 290 280 275 266 260 258 255 253 253 253 254 247 240 224 275 290 294 269 234 243 243 242 235 233 224
129 129 129 131 131 132 119 103 101 102 103 103 98 84 65 37 8 352 335 313 291 285 275 266 263 261 258 259 260 251 239 272 300 259 255 238 226 240 235 236 233 228 218
138 137 135 141 142 133 113 105 103 104 111 109 108 99 75 13 330 322 310 302 297 293 293 288 276 266 267 266 264 266 260 253 264 252 236 234 226 236 235 237 237 226 215
147 144 148 148 143 134 124 121 123 118 109 106 99 80 58 38 17 343 321 306 298 298 291 282 285 287 283 280 280 278 269 253 252 242 230 231 234 232 228 230 228 219 213
153 153 157 161 160 149 142 150 156 160 143 137 130 91 52 28 14 5 356 342 321 297 290 290 292 288 283 283 284 283 276 260 247 241 231 229 230 229 223 228 227 218 212
162 166 170 178 180 175 175 178 181 180 176 179 184 204 287 321 327 333 332 329 325 312 296 292 288 282 280 278 274 275 271 265 246 249 253 256 231 232 229 220 222 221 209
176 178 179 184 193 200 199 205 210 201 195 209 235 272 291 305 311 313 317 316 312 305 298 291 290 288 284 277 275 270 261 254 249 248 249 252 257 240 234 222 220 225 210
187 192 189 193 200 201 212 209 231 220 223 229 261 291 305 306 313 306 304 303 305 300 291 287 287 287 284 280 278 268 265 251 242 242 244 247 253 255 235 225 216 221 217
173 183 188 191 196 209 224 230 232 227 234 255 276 290 297 299 306 308 300 301 300 289 280 279 282 283 281 280 267 273 267 262 261 255 245 246 246 240 231 222 220 219 214
153 157 165 171 181 203 200 206 216 230 256 288 293 293 302 305 304 304 306 305 306 308 300 282 282 283 281 279 273 273 269 262 258 254 249 245 245 239 234 228 220 217 215